Weather History for Scappoose, OR

Change the Weather History Date:

Thursday, July 4, 2013

  Actual Average Record
Temperature  
Mean Temperature 62 °F -  
Max Temperature 75 °F - 90 °F (2007)
Min Temperature 51 °F - 46 °F (2000)
Degree Days  
Heating Degree Days 2    
Month to date heating degree days 2  
Since 1 June heating degree days 104  
Since 1 July heating degree days 2  
Cooling Degree Days 0    
Month to date cooling degree days 26  
Year to date cooling degree days 80  
Since 1 June cooling degree days 72  
Growing Degree Days 12 (Base 50)    
Moisture  
Dew Point 50 °F    
Average Humidity 66    
Maximum Humidity 86    
Minimum Humidity 46    
Precipitation  
Precipitation 0.00 in - 0.00 in (2015)
Month to date precipitation 0.00  
Year to date precipitation 13.89  
Sea Level Pressure  
Sea Level Pressure 30.10 in    
Wind  
Wind Speed 5 mph (NW)    
Max Wind Speed 17 mph    
Max Gust Speed 25 mph    
Visibility 10 miles    
Events      
T = Trace of Precipitation, MM = Missing Value Source: NWS Daily Summary

Daily Weather History Graph

Daily Weather History Graph

Search for Another Location

Airport:

Trip Planner

Search our weather history database for the weather conditions in past years. The results will help you decide how hot, cold, wet, or windy it might be!

Date:

Astronomy

Jul. 04, 2013 Rise Set
Actual Time 5:27 AM PDT 9:03 PM PDT
Civil Twilight 4:49 AM PDT 9:41 PM PDT
Nautical Twilight 3:59 AM PDT 10:31 PM PDT
Astronomical Twilight 2:51 AM PDT 11:38 PM PDT
Moon 2:52 AM PDT (7/4) 6:09 PM PDT (7/4)
Length of Visible Light 16h 51m
Length of Day
15h 36m
Waning Crescent, 11% of the Moon is Illuminated
Jul 4
Waning Crescent
Jul 8
New
Jul 15
First Quarter
Jul 22
Full
Jul 29
Last Quarter

Hourly Weather History & Observations

Time (PDT) Temp. Dew Point Humidity Pressure Visibility Wind Dir Wind Speed Gust Speed Precip Events Conditions
12:53 AM 57.9 °F 48.9 °F 72% 30.10 in 10.0 mi NNW 6.9 mph - N/A   Clear
1:53 AM 57.0 °F 48.9 °F 74% 30.11 in 10.0 mi NNW 8.1 mph - N/A   Clear
2:53 AM 55.0 °F 48.0 °F 77% 30.12 in 10.0 mi Calm Calm - N/A   Clear
3:53 AM 54.0 °F 48.0 °F 80% 30.11 in 10.0 mi Calm Calm - N/A   Clear
4:53 AM 53.1 °F 48.0 °F 83% 30.12 in 10.0 mi Calm Calm - N/A   Clear
5:53 AM 51.1 °F 46.9 °F 86% 30.13 in 10.0 mi Calm Calm - N/A   Clear
6:53 AM 55.9 °F 51.1 °F 84% 30.14 in 10.0 mi Calm Calm - N/A   Clear
7:53 AM 60.1 °F 51.1 °F 72% 30.14 in 10.0 mi Calm Calm - N/A   Partly Cloudy
8:50 AM 62.6 °F 50.0 °F 63% 30.14 in 10.0 mi Calm Calm - N/A   Mostly Cloudy
8:53 AM 63.0 °F 50.0 °F 63% 30.14 in 10.0 mi East 3.5 mph - N/A   Mostly Cloudy
9:13 AM 62.6 °F 51.8 °F 68% 30.14 in 10.0 mi Calm Calm - N/A   Mostly Cloudy
9:53 AM 64.9 °F 51.1 °F 61% 30.14 in 10.0 mi Variable 4.6 mph - N/A   Overcast
10:53 AM 68.0 °F 51.1 °F 55% 30.13 in 10.0 mi WNW 5.8 mph - N/A   Mostly Cloudy
11:53 AM 69.1 °F 50.0 °F 51% 30.12 in 10.0 mi Variable 5.8 mph - N/A   Overcast
12:53 PM 70.0 °F 50.0 °F 49% 30.12 in 10.0 mi WNW 10.4 mph 17.3 mph N/A   Overcast
1:53 PM 72.0 °F 50.0 °F 46% 30.10 in 10.0 mi North 9.2 mph - N/A   Overcast
2:53 PM 73.0 °F 51.1 °F 46% 30.08 in 10.0 mi NW 6.9 mph - N/A   Mostly Cloudy
3:53 PM 73.9 °F 52.0 °F 46% 30.07 in 10.0 mi WNW 10.4 mph 19.6 mph N/A   Mostly Cloudy
4:53 PM 72.0 °F 52.0 °F 49% 30.06 in 10.0 mi West 11.5 mph 25.3 mph N/A   Partly Cloudy
5:53 PM 71.1 °F 52.0 °F 51% 30.05 in 10.0 mi WNW 12.7 mph 21.9 mph N/A   Clear
6:53 PM 68.0 °F 50.0 °F 52% 30.05 in 10.0 mi WNW 10.4 mph 21.9 mph N/A   Scattered Clouds
7:53 PM 64.9 °F 48.9 °F 56% 30.06 in 10.0 mi NW 6.9 mph - N/A   Clear
8:53 PM 62.1 °F 48.9 °F 62% 30.06 in 10.0 mi Calm Calm - N/A   Clear
9:53 PM 59.0 °F 48.0 °F 67% 30.07 in 10.0 mi Calm Calm - N/A   Clear
10:53 PM 59.0 °F 48.0 °F 67% 30.07 in 10.0 mi Variable 6.9 mph - N/A   Clear
11:53 PM 59.0 °F 48.0 °F 67% 30.06 in 10.0 mi NW 3.5 mph - N/A   Mostly Cloudy